Location: Hains Lake
(37.8540°N, 99.8578°W)
Time: 18:50:15
(UTC+00:00)

Courier 1B Rocket - Pass Details

Date: 19 April 2021
Orbit: 920 x 1202 km, 28.2° (Epoch: 05 May)

Event Time Altitude Azimuth Distance (km) Brightness Sun altitude
Rises 03:59:16 0° 248° (WSW) 3,775 8.4 -28.4°
Reaches altitude 10° 04:02:05 10° 241° (WSW) 2,866 7.6 -28.8°
Enters shadow 04:06:06 30° 214° (SSW) 1,827 6.3 -29.3°
